TimeCDT,TemperatureF,Dew PointF,Humidity,Sea Level PressureIn,VisibilityMPH,Wind Direction,Wind SpeedMPH,Gust SpeedMPH,PrecipitationIn,Events,Conditions,WindDirDegrees,DateUTC
12:15 AM,51.8,46.4,82,29.99,10.0,Calm,Calm,-,N/A,,Clear,0,2012-10-16 05:15:00
12:35 AM,50.0,44.6,82,29.99,10.0,Calm,Calm,-,N/A,,Clear,0,2012-10-16 05:35:00
12:55 AM,50.0,46.4,87,29.99,10.0,Calm,Calm,-,N/A,,Clear,0,2012-10-16 05:55:00
1:15 AM,50.0,44.6,82,29.99,10.0,Calm,Calm,-,N/A,,Clear,0,2012-10-16 06:15:00
1:35 AM,50.0,44.6,82,29.99,10.0,Calm,Calm,-,N/A,,Clear,0,2012-10-16 06:35:00
1:55 AM,51.8,44.6,76,29.99,10.0,Calm,Calm,-,N/A,,Clear,0,2012-10-16 06:55:00
2:15 AM,51.8,44.6,76,29.98,10.0,SSE,3.5,-,N/A,,Clear,150,2012-10-16 07:15:00
2:35 AM,50.0,44.6,82,29.98,10.0,South,3.5,-,N/A,,Clear,190,2012-10-16 07:35:00
2:55 AM,51.8,44.6,76,29.97,10.0,Calm,Calm,-,N/A,,Clear,0,2012-10-16 07:55:00
3:15 AM,51.8,44.6,76,29.96,10.0,Calm,Calm,-,N/A,,Clear,0,2012-10-16 08:15:00
3:35 AM,51.8,44.6,76,29.95,10.0,Calm,Calm,-,N/A,,Unknown,0,2012-10-16 08:35:00
3:55 AM,50.0,44.6,82,29.96,10.0,SSE,3.5,-,N/A,,Unknown,150,2012-10-16 08:55:00
4:15 AM,51.8,44.6,76,29.94,10.0,SE,3.5,-,N/A,,Unknown,140,2012-10-16 09:15:00
4:55 AM,50.0,44.6,82,29.94,10.0,ESE,5.8,-,N/A,,Clear,120,2012-10-16 09:55:00
5:15 AM,50.0,44.6,82,29.94,10.0,SE,5.8,-,N/A,,Clear,130,2012-10-16 10:15:00
5:35 AM,50.0,44.6,82,29.93,10.0,SE,8.1,-,N/A,,Clear,130,2012-10-16 10:35:00
5:55 AM,50.0,44.6,82,29.93,10.0,SE,6.9,-,N/A,,Clear,130,2012-10-16 10:55:00
6:15 AM,51.8,44.6,76,29.93,10.0,SE,6.9,-,N/A,,Clear,130,2012-10-16 11:15:00
6:35 AM,51.8,44.6,76,29.93,10.0,SE,6.9,-,N/A,,Clear,140,2012-10-16 11:35:00
6:55 AM,53.6,44.6,72,29.92,20.0,SE,11.5,-,N/A,,Clear,130,2012-10-16 11:55:00
7:55 AM,53.6,46.4,77,29.93,20.0,SE,9.2,-,N/A,,Clear,130,2012-10-16 12:55:00
8:55 AM,57.2,48.2,72,29.94,20.0,SSE,9.2,-,N/A,,Clear,150,2012-10-16 13:55:00
10:55 AM,66.2,53.6,64,29.91,20.0,SSW,23.0,-,N/A,,Clear,200,2012-10-16 15:55:00
11:55 AM,71.6,53.6,53,29.88,20.0,SSW,11.5,-,N/A,,Clear,200,2012-10-16 16:55:00
12:55 PM,73.4,53.6,50,29.84,20.0,SSW,11.5,-,N/A,,Scattered Clouds,200,2012-10-16 17:55:00
1:55 PM,75.2,53.6,47,29.81,20.0,South,11.5,-,N/A,,Partly Cloudy,180,2012-10-16 18:55:00
2:55 PM,77.0,53.6,44,29.78,20.0,SSW,16.1,-,N/A,,Partly Cloudy,200,2012-10-16 19:55:00
3:55 PM,77.0,53.6,44,29.76,20.0,SSW,13.8,-,N/A,,Partly Cloudy,200,2012-10-16 20:55:00
4:55 PM,75.2,53.6,47,29.74,20.0,South,11.5,-,N/A,,Clear,190,2012-10-16 21:55:00
5:55 PM,71.6,51.8,50,29.73,20.0,South,13.8,-,N/A,,Scattered Clouds,190,2012-10-16 22:55:00
6:35 PM,68.0,50.0,52,29.74,10.0,South,11.5,-,N/A,,Clear,190,2012-10-16 23:35:00
7:15 PM,68.0,50.0,52,29.74,10.0,South,11.5,-,N/A,,Clear,190,2012-10-17 00:15:00
7:35 PM,66.2,50.0,56,29.75,10.0,South,10.4,-,N/A,,Clear,190,2012-10-17 00:35:00
7:55 PM,68.0,50.0,52,29.75,10.0,South,12.7,-,N/A,,Clear,190,2012-10-17 00:55:00
8:15 PM,66.2,50.0,56,29.75,10.0,South,9.2,-,N/A,,Clear,190,2012-10-17 01:15:00
8:35 PM,66.2,50.0,56,29.75,10.0,South,12.7,18.4,N/A,,Clear,190,2012-10-17 01:35:00
8:55 PM,66.2,50.0,56,29.75,10.0,South,16.1,-,N/A,,Clear,190,2012-10-17 01:55:00
9:15 PM,66.2,48.2,52,29.76,10.0,South,11.5,-,N/A,,Clear,190,2012-10-17 02:15:00
9:35 PM,64.4,50.0,59,29.76,10.0,South,12.7,17.3,N/A,,Clear,190,2012-10-17 02:35:00
9:55 PM,64.4,50.0,59,29.76,10.0,South,11.5,-,N/A,,Clear,190,2012-10-17 02:55:00
10:15 PM,64.4,50.0,59,29.77,10.0,SSW,11.5,-,N/A,,Clear,200,2012-10-17 03:15:00
10:35 PM,62.6,50.0,63,29.77,10.0,SSW,10.4,-,N/A,,Clear,200,2012-10-17 03:35:00
10:55 PM,62.6,50.0,63,29.76,10.0,SSW,10.4,-,N/A,,Clear,200,2012-10-17 03:55:00
11:15 PM,62.6,50.0,63,29.76,10.0,SSW,11.5,-,N/A,,Clear,200,2012-10-17 04:15:00